When you browse on this site, cookies collect data to enhance your experience and personalize the content and advertising you see.
Visit our Privacy Policy to learn more. By continuing to use the site, you agree to this use of cookies and data.
  • In Germany
  • List of Countries
  • For 7 days
  • Water Temperature
  • Satellite Maps
  • Weather Map
  • Weather Widgets
  • user-avatar
    Login

    Hourly Weather Imphal

    Today, 11 December, Tuesday

    Time Temperature Precipitation Wind Pressure Humidity
    00:00 +13°C° 0 mm 1 mps 693 mmHg 92%
    01:00 +13°C° 0 mm 1 mps 693 mmHg 92%
    02:00 +13°C° 0 mm 1 mps 693 mmHg 92%
    03:00 +12°C° 0 mm 1 mps 692 mmHg 92%
    04:00 +12°C° 0 mm 1 mps 693 mmHg 92%
    05:00 +12°C° 0 mm 1 mps 693 mmHg 92%
    06:00 +12°C° 0 mm 1 mps 693 mmHg 92%
    07:00 +15°C° 0 mm 1 mps 694 mmHg 81%
    08:00 +18°C° 0 mm 1 mps 695 mmHg 71%
    09:00 +21°C° 0 mm 1 mps 695 mmHg 61%
    10:00 +23°C° 0 mm 1 mps 695 mmHg 55%
    11:00 +24°C° 0 mm 1 mps 695 mmHg 48%
    12:00 +25°C° 0 mm 1 mps 695 mmHg 42%
    13:00 +25°C° 0 mm 1 mps 694 mmHg 43%
    14:00 +25°C° 0 mm 1 mps 694 mmHg 44%
    15:00 +25°C° 0 mm 1 mps 693 mmHg 45%
    16:00 +22°C° 0 mm 1 mps 693 mmHg 57%
    17:00 +19°C° 0 mm 1 mps 692 mmHg 69%
    18:00 +16°C° 0 mm 1 mps 692 mmHg 81%
    19:00 +15°C° 0 mm 1 mps 693 mmHg 82%
    20:00 +15°C° 0 mm 1 mps 693 mmHg 84%
    21:00 +14°C° 0 mm 1 mps 693 mmHg 86%
    22:00 +14°C° 0 mm 1 mps 693 mmHg 86%
    23:00 +14°C° 0 mm 1 mps 694 mmHg 87%

    Tomorrow, 12 December, Wednesday

    Time Temperature Precipitation Wind Pressure Humidity
    00:00 +13°C° 0 mm 1 mps 694 mmHg 87%
    01:00 +13°C° 0 mm 1 mps 694 mmHg 87%
    02:00 +13°C° 0 mm 1 mps 693 mmHg 87%
    03:00 +13°C° 0 mm 1 mps 693 mmHg 87%
    04:00 +13°C° 0 mm 1 mps 693 mmHg 87%
    05:00 +13°C° 0 mm 1 mps 693 mmHg 87%
    06:00 +12°C° 0 mm 1 mps 694 mmHg 87%
    07:00 +15°C° 0 mm 1 mps 695 mmHg 77%
    08:00 +19°C° 0 mm 1 mps 696 mmHg 67%
    09:00 +22°C° 0 mm 1 mps 697 mmHg 57%
    10:00 +23°C° 0 mm 1 mps 696 mmHg 52%
    11:00 +24°C° 0 mm 1 mps 696 mmHg 46%
    12:00 +26°C° 0 mm 1 mps 696 mmHg 40%
    13:00 +25°C° 0 mm 1 mps 695 mmHg 41%
    14:00 +25°C° 0 mm 1 mps 694 mmHg 41%
    15:00 +25°C° 0 mm 1 mps 694 mmHg 42%
    16:00 +22°C° 0 mm 1 mps 694 mmHg 53%
    17:00 +19°C° 0 mm 1 mps 693 mmHg 65%
    18:00 +16°C° 0 mm 1 mps 693 mmHg 76%
    19:00 +15°C° 0 mm 1 mps 694 mmHg 78%
    20:00 +15°C° 0 mm 1 mps 694 mmHg 81%
    21:00 +14°C° 0 mm 1 mps 695 mmHg 83%
    22:00 +14°C° 0 mm 1 mps 694 mmHg 83%
    23:00 +14°C° 0 mm 1 mps 694 mmHg 84%

    Day after tomorrow, 13 December, Thursday

    Time Temperature Precipitation Wind Pressure Humidity
    00:00 +13°C° 0 mm 1 mps 694 mmHg 84%
    01:00 +13°C° 0 mm 1 mps 694 mmHg 84%
    02:00 +13°C° 0 mm 1 mps 694 mmHg 84%
    03:00 +13°C° 0 mm 1 mps 694 mmHg 84%
    04:00 +13°C° 0 mm 1 mps 694 mmHg 83%
    05:00 +12°C° 0 mm 1 mps 694 mmHg 83%
    06:00 +12°C° 0 mm 1 mps 694 mmHg 83%
    07:00 +15°C° 0 mm 1 mps 695 mmHg 72%
    08:00 +19°C° 0 mm 1 mps 696 mmHg 62%
    09:00 +22°C° 0 mm 1 mps 697 mmHg 52%
    10:00 +23°C° 0 mm 1 mps 697 mmHg 47%
    11:00 +25°C° 0 mm 1 mps 697 mmHg 43%
    12:00 +26°C° 0 mm 1 mps 696 mmHg 38%
    13:00 +26°C° 0 mm 1 mps 695 mmHg 39%
    14:00 +25°C° 0 mm 1 mps 695 mmHg 40%
    15:00 +25°C° 0 mm 1 mps 694 mmHg 41%
    16:00 +22°C° 0 mm 1 mps 694 mmHg 52%
    17:00 +19°C° 0 mm 1 mps 694 mmHg 63%
    18:00 +16°C° 0 mm 1 mps 693 mmHg 74%
    19:00 +15°C° 0 mm 1 mps 694 mmHg 76%
    20:00 +15°C° 0 mm 1 mps 694 mmHg 78%
    21:00 +14°C° 0 mm 1 mps 695 mmHg 80%
    22:00 +14°C° 0 mm 1 mps 695 mmHg 80%
    23:00 +14°C° 0 mm 1 mps 695 mmHg 80%

    14 December, Friday

    Time Temperature Precipitation Wind Pressure Humidity
    00:00 +13°C° 0 mm 1 mps 694 mmHg 80%
    01:00 +13°C° 0 mm 1 mps 694 mmHg 80%
    02:00 +13°C° 0 mm 1 mps 694 mmHg 79%
    03:00 +13°C° 0 mm 1 mps 694 mmHg 79%
    04:00 +13°C° 0 mm 1 mps 694 mmHg 77%
    05:00 +13°C° 0 mm 1 mps 694 mmHg 76%
    06:00 +13°C° 0 mm 1 mps 694 mmHg 75%
    07:00 +15°C° 0 mm 1 mps 695 mmHg 67%
    08:00 +19°C° 0 mm 1 mps 696 mmHg 60%
    09:00 +21°C° 0 mm 1 mps 697 mmHg 52%
    10:00 +22°C° 0 mm 1 mps 697 mmHg 50%
    11:00 +23°C° 0 mm 1 mps 696 mmHg 47%
    12:00 +24°C° 0 mm 1 mps 696 mmHg 44%
    13:00 +24°C° 0 mm 1 mps 695 mmHg 48%
    14:00 +23°C° 0 mm 1 mps 695 mmHg 52%
    15:00 +22°C° 0 mm 1 mps 694 mmHg 55%
    16:00 +21°C° 0 mm 1 mps 694 mmHg 60%
    17:00 +19°C° 0 mm 1 mps 694 mmHg 65%
    18:00 +18°C° 0 mm 1 mps 695 mmHg 70%
    19:00 +18°C° 0 mm 1 mps 695 mmHg 70%
    20:00 +16°C° 0 mm 1 mps 696 mmHg 70%
    21:00 +16°C° 0 mm 1 mps 696 mmHg 69%
    22:00 +16°C° 0 mm 1 mps 696 mmHg 69%
    23:00 +16°C° 0 mm 1 mps 696 mmHg 69%

    15 December, Saturday

    Time Temperature Precipitation Wind Pressure Humidity
    00:00 +16°C° 0 mm 1 mps 696 mmHg 69%
    01:00 +16°C° 0 mm 1 mps 695 mmHg 67%
    02:00 +15°C° 0 mm 0 mps 695 mmHg 66%
    03:00 +15°C° 0 mm 0 mps 695 mmHg 65%
    04:00 +15°C° 0 mm 0 mps 695 mmHg 65%
    05:00 +15°C° 0 mm 0 mps 695 mmHg 65%
    06:00 +15°C° 0 mm 0 mps 696 mmHg 66%
    07:00 +16°C° 0 mm 0 mps 696 mmHg 63%
    08:00 +17°C° 0 mm 0 mps 697 mmHg 61%
    09:00 +18°C° 0 mm 0 mps 698 mmHg 59%
    10:00 +21°C° 0 mm 1 mps 697 mmHg 57%
    11:00 +22°C° 0 mm 1 mps 697 mmHg 54%
    12:00 +23°C° 0 mm 1 mps 697 mmHg 51%
    13:00 +23°C° 0 mm 1 mps 696 mmHg 53%
    14:00 +23°C° 0 mm 1 mps 696 mmHg 54%
    15:00 +22°C° 0 mm 1 mps 695 mmHg 56%
    16:00 +21°C° 0 mm 1 mps 696 mmHg 61%
    17:00 +20°C° 0 mm 1 mps 696 mmHg 66%
    18:00 +16°C° 0 mm 0 mps 696 mmHg 71%
    19:00 +16°C° 0 mm 0 mps 696 mmHg 71%
    20:00 +16°C° 0 mm 0 mps 696 mmHg 71%
    21:00 +16°C° 0 mm 0 mps 697 mmHg 70%
    22:00 +15°C° 0 mm 0 mps 697 mmHg 71%
    23:00 +15°C° 0 mm 0 mps 697 mmHg 71%

    16 December, Sunday

    Time Temperature Precipitation Wind Pressure Humidity
    00:00 +15°C° 0 mm 0 mps 696 mmHg 71%
    01:00 +15°C° 0 mm 0 mps 696 mmHg 71%
    02:00 +15°C° 0 mm 0 mps 696 mmHg 70%
    03:00 +15°C° 0 mm 0 mps 696 mmHg 70%
    04:00 +15°C° 0 mm 0 mps 696 mmHg 69%
    05:00 +15°C° 0 mm 0 mps 696 mmHg 69%
    06:00 +15°C° 0 mm 0 mps 696 mmHg 68%
    07:00 +17°C° 0 mm 0 mps 697 mmHg 64%
    08:00 +20°C° 0 mm 1 mps 698 mmHg 60%
    09:00 +22°C° 0 mm 1 mps 698 mmHg 55%
    10:00 +23°C° 0 mm 1 mps 698 mmHg 52%
    11:00 +25°C° 0 mm 1 mps 698 mmHg 48%
    12:00 +26°C° 0 mm 1 mps 697 mmHg 44%
    13:00 +26°C° 0 mm 1 mps 697 mmHg 46%
    14:00 +25°C° 0 mm 1 mps 696 mmHg 49%
    15:00 +25°C° 0 mm 1 mps 695 mmHg 52%
    16:00 +23°C° 0 mm 1 mps 695 mmHg 61%
    17:00 +20°C° 0 mm 1 mps 695 mmHg 71%
    18:00 +16°C° 0 mm 0 mps 695 mmHg 81%
    19:00 +16°C° 0 mm 0 mps 695 mmHg 82%
    20:00 +16°C° 0 mm 1 mps 695 mmHg 83%
    21:00 +16°C° 0 mm 1 mps 696 mmHg 84%
    22:00 +16°C° 0 mm 1 mps 695 mmHg 84%
    23:00 +15°C° 0 mm 1 mps 695 mmHg 84%
    Show more